Torna al catalogo

METEOR 2-17 DEB

AttivoPO
NORAD 35373·DEBRIS·🇷🇺 Russia

Lanciato Jan 30, 1988 da Plesetsk Cosmodrome

Loading…

Prossimi Passaggi (prossime 24 ore)

TLE

In scadenzaSource: Space-Track

Epoca: Sep 6, 2026, 02:52 UTC

1 35373U 88005AH  26249.11997393  .00001339  00000-0  85352-3 0  9999
2 35373  82.5278 189.1896 0031712  33.9018 326.4170 14.02727151603636

Traccia METEOR 2-17 DEB in tempo reale con AllMySat

Download on the App Store